User: anonymous   Login
Location: Pabrico
(37.5827°N, 122.0063°W)
Time: 16:16:59
(UTC+00:00)
Language:

Cosmos 1674 - Orbit

View from above orbital plane
View from above orbital plane
View from above satellite
View from above satellite

Ground track
Ground track

The orbit data is extracted from the following two-line orbital elements,

1 15944U 85069A   24170.58196040  .00017158  00000-0  41768-3 0  9999
2 15944  82.4976 198.9205 0013035 165.9862 194.1748 15.40717977127185
Epoch (UTC): 18 June 2024 13:58:01
Eccentricity: 0.0013035
inclination: 82.4976°
perigee height: 435 km
apogee height: 453 km
right ascension of ascending node: 198.9205°
argument of perigee: 165.9862°
revolutions per day: 15.40717977
mean anomaly at epoch: 194.1748°
orbit number at epoch: 12718

The dashed part of the orbit path shows where the satellite is in the earth's shadow,  

DLR